Regional Weather Roundup
Issued by NWS Little Rock, AR

Home | Current Version | Previous Version | Graphics & Text | Print | Product List | Glossary On
Versions: 1 2 3 4 5 6 7 8 9 10 11 12 13 14 15 16 17 18 19 20 21 22 23 24 25 26 27 28 29 30 31 32 33 34 35 36 37 38 39 40 41 42 43 44 45 46 47 48 49 50
000
ASUS44 KLZK 261505
RWRLZK

WEATHER ROUNDUP FOR ARKANSAS
NATIONAL WEATHER SERVICE LITTLE ROCK AR
1000 AM CDT THU MAR 26 2015

NOTE: "FAIR" INDICATES FEW OR NO CLOUDS BELOW 12,000 FEET WITH NO
SIGNIFICANT WEATHER AND/OR OBSTRUCTIONS TO VISIBILITY.

ARZ001-003-010-029-261600-
NORTHWEST ARKANSAS

CITY           SKY/WX    TMP DP  RH WIND       PRES   REMARKS
FAYETTEVILLE   CLOUDY    42  40  92 N8        30.10S
FORT SMITH     CLOUDY    49  41  74 N15       30.10R
HARRISON       LGT RAIN  42  41  96 N15G21    30.09R
BENTONVILLE    CLOUDY    43  36  75 NE17      30.11F
ROGERS         CLOUDY    40  37  89 N18       30.12F
SILOAM SPGS    CLOUDY    43  34  70 N15       30.13S
HIGHFILL       CLOUDY    42  37  82 N20       30.11F
SPRINGDALE     CLOUDY    41  37  87 N15G26      N/A
$$

ARZ004-005-016-261600-
NORTH CENTRAL ARKANSAS

CITY           SKY/WX    TMP DP  RH WIND       PRES   REMARKS
BATESVILLE     CLOUDY    46  45  93 NW8       30.02R
FLIPPIN        CLOUDY    43  37  81 N12       30.08R
MTN HOME       LGT RAIN  41  39  93 N9G22     30.08R
$$

ARZ040-041-261600-
WEST CENTRAL ARKANSAS

CITY           SKY/WX    TMP DP  RH WIND       PRES   REMARKS
MENA           CLOUDY    50  46  87 N7G18     30.05R
MOUNT IDA      LGT RAIN  51  49  92 NW7       30.00R FOG
$$

ARZ009-017-025-026-028-261600-
NORTHEAST ARKANSAS

CITY           SKY/WX    TMP DP  RH WIND       PRES   REMARKS
CORNING        LGT RAIN  46  46 100 N13       30.02R
JONESBORO      CLOUDY    48  46  93 N12G25    29.98R
NEWPORT        LGT RAIN  48  47  97 N22       30.01R FOG
BLYTHEVILLE    CLOUDY    49  47  93 N20       29.96R
NW BLYTHEVILLE CLOUDY    48  45  87 N21G30    29.97R
$$

ARZ022-023-033-042-044-261600-
CENTRAL ARKANSAS

CITY           SKY/WX    TMP DP  RH WIND       PRES   REMARKS
LITTLE ROCK    LGT RAIN  54  48  82 N14G24    29.99R FOG
N LITTLE ROCK  CLOUDY    51  51 100 N12G22    29.98R
JACKSONVILLE   LGT RAIN  52  50  93 N8        29.98R FOG
SEARCY         CLOUDY    50  48  93 N13G21    30.01R FOG
HOT SPRINGS    LGT RAIN  54  51  90 N9G20     29.98R FOG
RUSSELLVILLE   LGT RAIN  50  46  86 NW9       30.06R FOG
CLINTON        CLOUDY    48  43  81 N8G16     30.06R
$$

ARZ036-261600-
EAST ARKANSAS

CITY           SKY/WX    TMP DP  RH WIND       PRES   REMARKS
WEST MEMPHIS   CLOUDY    54  53  97 N21G28    29.91R
$$

ARZ050-053-066-070-073-261600-
SOUTHWEST ARKANSAS

CITY           SKY/WX    TMP DP  RH WIND       PRES   REMARKS
ARKADELPHIA    LGT RAIN  59  59 100 NW6       29.97R FOG
CAMDEN         PTSUNNY   63  57  82 MISG      29.92S
TEXARKANA      CLOUDY    59  57  93 N9        29.95R
EL DORADO      CLOUDY    61  59  93 S3        29.92R
$$

ARZ056-057-069-261600-
SOUTHEAST ARKANSAS

CITY           SKY/WX    TMP DP  RH WIND       PRES   REMARKS
PINE BLUFF     CLOUDY    62  58  86 W7        29.93R
STUTTGART      CLOUDY    63  55  77 N13       29.92S
MONTICELLO     PTSUNNY   64  58  80 NW7       29.92R

$$





USA.gov is the U.S. government's official web portal to all federal, state and local government web resources and services.